Home > Time Zones > World Clock > Weather > Serbia > Niš > Past weeks

Flag for Serbia Weather past 2 weeks in Niš, Serbia

Now
70 °F

Sunny.


Feels Like: 70 °F
Forecast: 60 / 83 °F
Wind: 3 mph from North

Location: Nis Airport

Current Time: Aug 31, 2014 at 9:21:11 AM

Latest Report: Aug 31, 2014 at 9:00 AM


Visibility: 10 mi

Pressure: 29.98 "Hg

Humidity: 64%

Dew point: 57 °F

Location of NišLocation

Historic Weather in Niš — Graph

°F

Niš temperature yesterday

Maximum temperature yesterday: 84 °F (at 2:00 PM)
Minimum temperature yesterday: 57 °F (at 4:00 AM)
Average temperature yesterday: 71 °F

Past Weeks' High & Low Weather Summary

 TemperatureHumidityPressure
High91 °F (Aug 27, 4:30 PM)100% (Aug 21, 4:00 PM)30.15 "Hg (Aug 21, 4:00 PM)
Low46 °F (Aug 29, 5:30 AM)29% (Aug 26, 5:00 PM)29.74 "Hg (Aug 27, 4:00 PM)
Average69 °F69%29.99 "Hg
* Reported Aug 16 8:00 AM — Aug 31 8:00 AM, Niš, Weather by CustomWeather, © 2014

Note: Actual official high and low records may vary slightly from our data, if they occured in-between our weather recording intervals... More about our weather records

Advertising

Niš weather history for previous 24 hours

 ConditionsComfort  
Time TempWeatherWind HumidityBarometerVisibility
8:00 AM
Aug 31
68 °FPassing clouds.3 mph69%30.01 "HgN/A
7:30 AM66 °FPassing clouds.3 mph64%30.01 "HgN/A
7:00 AM61 °FScattered clouds.2 mph83%30.01 "HgN/A
6:30 AM59 °FPassing clouds.2 mph82%30.01 "HgN/A
6:00 AM57 °FPassing clouds.3 mph88%30.01 "HgN/A
5:30 AM63 °FPassing clouds.3 mph68%30.01 "HgN/A
5:00 AM61 °FPassing clouds.3 mph72%30.01 "HgN/A
4:30 AM61 °FClear.5 mph77%29.98 "Hg10 mi
4:00 AM61 °FClear.No wind77%30.01 "Hg10 mi
3:30 AM59 °FClear.1 mph82%30.01 "Hg10 mi
3:00 AM57 °FPassing clouds.3 mph88%30.01 "HgN/A
2:30 AM57 °FPassing clouds.3 mph88%30.01 "HgN/A
2:00 AM59 °FPassing clouds.5 mph88%30.01 "HgN/A
1:30 AM61 °FClear.2 mph83%30.01 "Hg10 mi
1:00 AM64 °FClear.2 mph73%30.01 "Hg10 mi
12:30 AM64 °FPassing clouds.3 mph73%30.01 "HgN/A
12:00 AM68 °FPassing clouds.3 mph60%30.01 "HgN/A
11:30 PM
Aug 30
68 °FPassing clouds.7 mph64%30.01 "HgN/A
11:00 PM68 °FClear.5 mph69%30.01 "Hg10 mi
10:30 PM68 °FClear.2 mph69%30.01 "Hg10 mi
10:00 PM70 °FClear.2 mph64%30.01 "Hg10 mi
9:30 PM73 °FClear.2 mph53%30.01 "Hg10 mi
9:00 PM73 °FClear.1 mph57%29.98 "Hg10 mi
8:00 PM75 °FPassing clouds.3 mph54%29.98 "HgN/A
7:30 PM75 °FPassing clouds.7 mph57%29.98 "HgN/A
7:00 PM77 °FPassing clouds.8 mph54%29.98 "HgN/A
6:30 PM79 °FSunny.7 mph54%29.98 "Hg10 mi
6:00 PM81 °FPassing clouds.8 mph51%29.98 "HgN/A
5:30 PM82 °FPassing clouds.9 mph48%29.98 "HgN/A
5:00 PM82 °FPassing clouds.9 mph48%29.98 "HgN/A
4:30 PM84 °FPassing clouds.9 mph45%29.98 "HgN/A
4:00 PM84 °FPassing clouds.8 mph45%29.98 "HgN/A
3:30 PM84 °FPassing clouds.7 mph45%29.98 "HgN/A
3:00 PM84 °FPassing clouds.5 mph45%30.01 "HgN/A
2:30 PM84 °FPassing clouds.7 mph43%30.01 "HgN/A
2:00 PM84 °FPassing clouds.5 mph43%30.01 "HgN/A
1:30 PM82 °FPassing clouds.6 mph45%30.04 "HgN/A
1:00 PM82 °FPassing clouds.6 mph45%30.04 "HgN/A
12:30 PM81 °FPassing clouds.6 mph48%30.04 "HgN/A
12:00 PM79 °FPassing clouds.9 mph48%30.07 "HgN/A
11:30 AM77 °FPassing clouds.10 mph51%30.07 "HgN/A
11:00 AM75 °FPassing clouds.10 mph54%30.07 "HgN/A
10:30 AM75 °FPassing clouds.10 mph54%30.07 "HgN/A
10:00 AM73 °FPassing clouds.9 mph53%30.09 "HgN/A
9:30 AM70 °FPassing clouds.7 mph57%30.09 "HgN/A
9:00 AM70 °FSunny.7 mph57%30.09 "Hg10 mi
Weather by CustomWeather, © 2014

See weather overviewHow to use our weather pages